Weerawila Airport

Jump to: basic info | weather | frequencies | runways | comments

Related pages: nearby airports | nearby navaids | notams | map

Basic information (top)

Codes: WRZ VCCW
Location: lon 6.254490, lat 81.235199, elev 50 ft / 15 m msl
Status: small_airport
Scheduled airline service: yes
Links: Wikipedia Mobile

Weather (top)

Current conditions for Mattala Rajapaksa International Airport 7nm (13km) SW (rec'd 2014/11/27 12:10Z):

VCRI 271210Z VRB02KT 6000 SHRA BKN014 FEW018CB OVC080 24/23 Q1007 NOSIG

Airport forecast for Bandaranaike International Colombo Airport 98nm (181km) NW (rec'd 2014/11/25 18:00Z):

TAF VCBI 251540Z 2518/2624 04010KT 9999 SCT016 BKN100 TX29/2608Z TN24/2600Z 
      TEMPO 2600/2604 6000 -SHRA SCT010 BKN016 
      TEMPO 2609/2618 6000 -TSRA/SHRA SCT010 BKN016 FEW020CB

Frequencies (top)

Verify before use: may be inaccurate or out of date.

TWR: 118.1 MHz (TWR)

Runways (top)

07/25: 4,000 x 93 ft (1,219 x 28 m) — paved — not lighted

Latest comments (top)

No comments yet for Weerawila Airport

More... (top)

See also NOTAMs and nearby airports and navaids, or visit the Weerawila Airport page at the main OurAirports website..